This is the latest recevied weather packets stored in our database for station/object IT9RID. If no packets are shown the sender has not sent any weather packets the latest 10 day(s).
| Time | Temp. | Humidity | Pressure | Rain* | Wind** | Luminosity | Snow |
|---|---|---|---|---|---|---|---|
| 1777931048 | 15.56° C | 72% | 1018.3 hPa | 0 mm | - | - | - |
| 1777930448 | 15.56° C | 73% | 1018.4 hPa | 0 mm | - | - | - |
| 1777929848 | 15.56° C | 73% | 1018.3 hPa | 0 mm | - | - | - |
| 1777929248 | 15.56° C | 74% | 1018.2 hPa | 0 mm | - | - | - |
| 1777928648 | 15° C | 73% | 1018.3 hPa | 0 mm | - | - | - |
| 1777928047 | 15.56° C | 73% | 1018.3 hPa | 0 mm | - | - | - |
| 1777927447 | 15.56° C | 73% | 1018.2 hPa | 0 mm | - | - | - |
| 1777926847 | 15.56° C | 72% | 1018.3 hPa | 0 mm | - | - | - |
| 1777926247 | 15.56° C | 72% | 1018.5 hPa | 0 mm | - | - | - |
| 1777925647 | 15.56° C | 72% | 1018.6 hPa | 0 mm | - | - | - |
| 1777925047 | 15.56° C | 71% | 1018.6 hPa | 0 mm | - | - | - |
| 1777924447 | 16.11° C | 71% | 1018.5 hPa | 0 mm | - | - | - |
| 1777923847 | 16.11° C | 71% | 1018.4 hPa | 0 mm | - | - | - |
| 1777923246 | 16.11° C | 70% | 1018.4 hPa | 0 mm | - | - | - |
| 1777922646 | 16.11° C | 70% | 1018.3 hPa | 0 mm | - | - | - |
| 1777922046 | 16.11° C | 70% | 1018.1 hPa | 0 mm | - | - | - |
| 1777921446 | 16.67° C | 70% | 1018.1 hPa | 0 mm | - | - | - |
| 1777920846 | 16.67° C | 71% | 1017.9 hPa | 0 mm | - | - | - |
| 1777920245 | 17.22° C | 70% | 1018 hPa | 0 mm | - | - | - |
| 1777919645 | 17.22° C | 70% | 1018 hPa | 0 mm | - | - | - |
| 1777919046 | 17.78° C | 69% | 1017.9 hPa | 0 mm | - | - | - |
| 1777918445 | 17.78° C | 67% | 1017.9 hPa | 0 mm | - | - | - |
| 1777917846 | 17.78° C | 65% | 1017.9 hPa | 0 mm | - | - | - |
| 1777917245 | 18.33° C | 61% | 1018 hPa | 0 mm | - | - | - |
| 1777916645 | 18.33° C | 56% | 1018 hPa | 0 mm | - | - | - |
* Rain latest hour (hover to see other rain measurements)
** Current wind speed in m/s (hover to see current wind gust speed)